Zurück zum Katalog

GRIFON-4

AktivWissenschaftSSO
NORAD 67277·PAYLOAD·🇷🇺 Russia
Dieser Satellitenname wurde noch nicht durch offizielle Quellen bestätigt.

Gestartet Dec 28, 2025 von Vostochny Cosmodrome

Loading…

Nächste Überflüge (nächste 24 Stunden)

TLE

AktuellSource: Space-Track

Epoche: Sep 14, 2026, 10:33 UTC

1 67277U 25313AF  26257.43987447  .00005011  00000-0  21201-3 0  9997
2 67277  97.3837 330.5528 0014667  58.1167 302.1495 15.23555135 39535

Verfolge GRIFON-4 in Echtzeit mit AllMySat

Download on the App Store